Regional Weather Roundup
Issued by NWS

Home | Current Version | Previous Version | Graphics & Text | Print | Product List | Glossary Off
Versions: 1 2 3 4 5 6 7 8 9 10 11 12 13 14 15 16 17 18 19 20 21 22 23 24 25 26 27

000
ASUS43 KDMX 160607
RWRIA

WEATHER ROUNDUP FOR IOWA
NATIONAL WEATHER SERVICE DES MOINES IA
100 AM CDT WED APR 16 2014

NOTE: "FAIR" INDICATES FEW OR NO CLOUDS BELOW 12,000 FEET WITH NO
SIGNIFICANT WEATHER AND/OR OBSTRUCTIONS TO VISIBILITY.

* - THESE STATIONS ARE NOT NWS STATIONS...THUS NOT UNDER NWS
QUALITY CONTROL.  THEY ALSO DO NOT REPORT WEATHER SUCH
AS PRECIPITATION OR FOG.

IAZ001>003-012>014-020>022-031>034-043>046-160700-
   NORTHWEST IOWA

CITY           SKY/WX    TMP DP  RH WIND       PRES   REMARKS
CARROLL *      CLOUDY    34  28  80 SE12      29.87F WCI  25
CHEROKEE *     MOCLDY    39  28  65 SE12      29.82S WCI  32
DENISON *      PTCLDY    41  30  65 S18G25    29.81F
LE MARS *      CLOUDY    41  30  65 SE17G23   29.75F
ORANGE CITY *  PTCLDY    39  27  60 SE13G20   29.77F WCI  32
SHELDON *      CLOUDY    37  27  65 SE18G26   29.78F WCI  27
SIOUX CITY       N/A     44  31  60 SE16      29.76F
6HR MIN TEMP:  42; 6HR MAX TEMP:  50;

SPENCER        CLOUDY    37  24  59 SE22G35   29.84F WCI  26
6HR MIN TEMP:  35; 6HR MAX TEMP:  43;

STORM LAKE *   MOCLDY    37  28  70 SE18G26   29.84S WCI  27
$$

IAZ055>058-069>071-079>083-090>094-160700-
   SOUTHWEST IOWA

CITY           SKY/WX    TMP DP  RH WIND       PRES   REMARKS
ATLANTIC *     CLOUDY    45  30  57 S18G25    29.86F
AUDUBON *      CLEAR     41  27  56 S13G21    29.87F
CLARINDA *     CLEAR     45  30  57 S16G23    29.92F
COUNCIL BLFS * PTCLDY    45  32  61 S18G28    29.82F
CRESTON *      PTCLDY    43  30  61 S18G25    29.93F
HARLAN  *      MOCLDY    43  30  61 S20G25    29.87F
LAMONI           N/A     42  29  59 S15G22    29.98S
6HR MIN TEMP:  42; 6HR MAX TEMP:  47;

RED OAK *      CLOUDY    45  32  61 S16G26    29.88F
SHENANDOAH *   PTCLDY    45  30  57 SE17      29.89F
$$

IAZ047>049-059>061-072>074-084-160700-
   CENTRAL IOWA

CITY           SKY/WX    TMP DP  RH WIND       PRES   REMARKS
AMES             N/A     35  24  64 SE12      29.97F WCI  27
6HR MIN TEMP:  35; 6HR MAX TEMP:  42;

ANKENY *       CLEAR     37  25  60 SE13      29.97F WCI  29
CHARITON *     CLOUDY    39  28  65 S15       29.99F WCI  31
DES MOINES       N/A     40  25  55 SE12      29.98F WCI  33
6HR MIN TEMP:  40; 6HR MAX TEMP:  47;

GRINNELL*        N/A     32  25  74 SE9       30.04S WCI  24
KNOXVILLE *    CLEAR     39  25  56 SE12      30.01S WCI  32
MARSHALLTOWN     N/A     34  22  61 SE16      30.02S WCI  24
6HR MIN TEMP:  32; 6HR MAX TEMP:  40;

NEWTON *       CLOUDY    34  25  69 SE13      30.02F WCI  25
PELLA *          N/A     37  27  65 SE9       30.04S WCI  31
PERRY *          N/A     37  27  65 SE15      29.92F WCI  28
$$

IAZ004>006-015-016-023>025-035-036-160700-
   NORTH CENTRAL IOWA

CITY           SKY/WX    TMP DP  RH WIND       PRES   REMARKS
ALGONA *       PTCLDY    34  23  64 SE16G25   29.93S WCI  23
CLARION *      PTCLDY    34  23  64 SE21      29.96S WCI  22
ESTHERVILLE      N/A     31  24  75 E18       29.89F WCI  19
6HR MIN TEMP:  30; 6HR MAX TEMP:  39;

FORT DODGE *     N/A     36  25  64 SE16G22   29.93F WCI  26
MASON CITY       N/A     32  20  61 SE15      30.02S WCI  22
6HR MIN TEMP:  32; 6HR MAX TEMP:  37;

FOREST CITY *  CLEAR     32  21  64 E16G23    29.98S WCI  21
IOWA FALLS *     N/A     34  25  69 SE18      30.00F WCI  23
$$

IAZ007>011-017>019-026>030-037>042-050>054-066-160700-
   NORTHEAST IOWA

CITY           SKY/WX    TMP DP  RH WIND       PRES   REMARKS
CEDAR RAPIDS     N/A     32  18  56 E13       30.08F WCI  22
6HR MIN TEMP:  29; 6HR MAX TEMP:  39;

CHARLES CITY * CLOUDY    32  19  59 SE15G21   30.05F WCI  22
CLINTON *        N/A     25  19  80 E8        30.19R WCI  16
DECORAH *      CLOUDY    32  19  59 SE7       30.08F WCI  26
DUBUQUE          N/A     30  18  60 SE8       30.13S WCI  22
6HR MIN TEMP:  28; 6HR MAX TEMP:  35;

MONTICELLO *   MOCLDY    32  19  59 E9        30.12S WCI  24
OELWEIN *      CLOUDY   N/A N/A N/A SE14      30.08S
WATERLOO         N/A     33  18  53 SE13      30.06S WCI  24
6HR MIN TEMP:  28; 6HR MAX TEMP:  37;

$$

IAZ064-065-067-068-078-160700-
   EAST CENTRAL IOWA

CITY           SKY/WX    TMP DP  RH WIND       PRES   REMARKS
DAVENPORT        N/A     29  18  63 SE8       30.16S WCI  21
6HR MIN TEMP:  28; 6HR MAX TEMP:  39;

IOWA CITY        N/A     33  20  58 SE9       30.12F WCI  25
6HR MIN TEMP:  32; 6HR MAX TEMP:  40;

MT. PLEASANT *   N/A     36  23  60 SE9       30.11S WCI  29
MUSCATINE *    CLEAR     34  21  60 SE7       30.14S WCI  28
QUAD CITIES      N/A     29  19  66 E6        30.16S WCI  23
6HR MIN TEMP:  27; 6HR MAX TEMP:  40;

$$

IAZ062-063-075>077-085>089-095>099-160700-
   SOUTHEAST IOWA

CITY           SKY/WX    TMP DP  RH WIND       PRES   REMARKS
BURLINGTON       N/A     36  23  59 SE10      30.12F WCI  28
6HR MIN TEMP:  35; 6HR MAX TEMP:  43;

FAIRFIELD *    CLOUDY    32  23  69 SE8       30.08S WCI  25
FORT MADISON * CLEAR     37  25  60 SE8       30.12F WCI  31
KEOKUK *       CLEAR     39  23  52 SE10      30.11F WCI  32
OSKALOOSA *      N/A     34  26  75 SE12      30.06S WCI  25
CENTERVILLE *  CLEAR     39  27  60 SE13      30.04S WCI  32
OTTUMWA          N/A     38  23  55 SE14      30.05F WCI  30
6HR MIN TEMP:  32; 6HR MAX TEMP:  44;

WASHINGTON *   MOCLDY    30  25  80 SE9       30.09F WCI  22
$$

ABBREVIATIONS USED IN REMARKS
   TC - TEMPERATURES IN CELSIUS
  WCI - WIND CHILL INDEX
   HX - HEAT INDEX
  VSB - VISIBILITY
$$




USA.gov is the U.S. government's official web portal to all federal, state and local government web resources and services.